| time (UTC) | temp F | wind direction | speed MPH | gust MPH | rain 1hr in | rain 24hr in | rain mn in | humidity % | barometer mb |
| 20260906121535 | 0 | 0.0 | 0.0 | 0.00 | 0.36 | 0.00 | 1013.2 | ||
| 20260906120044 | 0 | 0.0 | 0.0 | 0.00 | 0.36 | 0.00 | 1013.0 | ||
| 20260906114546 | 0 | 0.0 | 0.0 | 0.00 | 0.36 | 0.00 | 1012.8 | ||
| 20260906113036 | 0 | 0.0 | 0.0 | 0.00 | 0.36 | 0.00 | 1012.8 | ||
| 20260906111540 | 0 | 0.0 | 0.0 | 0.00 | 0.36 | 0.00 | 1012.7 | ||
| 20260906110036 | 0 | 0.0 | 0.0 | 0.00 | 0.36 | 0.00 | 1012.6 | ||
| 20260906104542 | 0 | 0.0 | 0.0 | 0.00 | 0.36 | 0.00 | 1012.5 | ||
| 20260906103037 | 0 | 0.0 | 0.0 | 0.00 | 0.36 | 0.00 | 1012.6 | ||
| 20260906101539 | 0 | 0.0 | 0.0 | 0.00 | 0.36 | 0.00 | 1012.4 | ||
| 20260906100036 | 0 | 0.0 | 0.0 | 0.00 | 0.36 | 0.00 | 1012.4 | ||
| 20260906094556 | 0 | 0.0 | 0.0 | 0.00 | 0.36 | 0.00 | 1012.4 | ||
| 20260906093048 | 0 | 0.0 | 0.0 | 0.00 | 0.36 | 0.00 | 1012.2 | ||
| 20260906091537 | 0 | 0.0 | 0.0 | 0.00 | 0.36 | 0.00 | 1012.2 | ||
| 20260906090037 | 0 | 0.0 | 0.0 | 0.00 | 0.36 | 0.00 | 1012.2 | ||
| 20260906084537 | 77 | 0.0 | 0.0 | 0.00 | 0.36 | 0.00 | 1012.2 | ||
| 20260906083044 | 78 | 119 | 0.0 | 0.0 | 0.00 | 0.36 | 0.00 | 71 | 1012.1 |
| 20260906081528 | 78 | 119 | 0.0 | 0.0 | 0.00 | 0.36 | 0.00 | 72 | 1012.3 |
| 20260906080035 | 78 | 119 | 0.0 | 0.0 | 0.00 | 0.36 | 0.00 | 72 | 1012.3 |
| 20260906074533 | 78 | 119 | 0.0 | 0.0 | 0.00 | 0.36 | 0.00 | 72 | 1012.3 |
| 20260906073033 | 78 | 119 | 0.0 | 0.0 | 0.00 | 0.36 | 0.00 | 72 | 1012.3 |
| 20260906071538 | 78 | 119 | 0.0 | 0.0 | 0.00 | 0.36 | 0.00 | 73 | 1012.3 |
| 20260906070024 | 78 | 119 | 0.0 | 0.0 | 0.00 | 0.36 | 0.00 | 72 | 1012.5 |
| 20260906064504 | 78 | 119 | 0.0 | 0.0 | 0.00 | 0.36 | 0.00 | 72 | 1012.4 |
| 20260906063007 | 78 | 119 | 0.0 | 0.0 | 0.00 | 0.36 | 0.00 | 73 | 1012.5 |
| 20260906061512 | 78 | 119 | 0.0 | 0.0 | 0.00 | 0.36 | 0.00 | 73 | 1012.5 |
| 20260906060017 | 78 | 119 | 0.0 | 0.0 | 0.00 | 0.36 | 0.00 | 72 | 1012.5 |
| 20260906054523 | 78 | 119 | 0.0 | 0.0 | 0.00 | 0.36 | 0.00 | 72 | 1012.3 |
| 20260906053009 | 78 | 119 | 0.0 | 0.0 | 0.00 | 0.36 | 0.00 | 72 | 1012.5 |
| 20260906051508 | 78 | 119 | 0.0 | 0.0 | 0.00 | 0.36 | 0.00 | 72 | 1012.5 |
| 20260906050015 | 78 | 119 | 0.0 | 0.0 | 0.00 | 0.36 | 0.00 | 73 | 1012.6 |
| 20260906044518 | 78 | 119 | 0.0 | 0.0 | 0.00 | 0.36 | 0.36 | 74 | 1012.5 |
| 20260906043027 | 78 | 119 | 0.0 | 0.0 | 0.00 | 0.36 | 0.36 | 74 | 1012.6 |
| 20260906041507 | 79 | 119 | 0.0 | 0.0 | 0.00 | 0.36 | 0.36 | 74 | 1012.8 |
| 20260906040018 | 79 | 119 | 0.0 | 0.0 | 0.00 | 0.36 | 0.36 | 75 | 1012.7 |
| 20260906034516 | 79 | 119 | 0.0 | 0.0 | 0.00 | 0.36 | 0.36 | 77 | 1012.8 |
| 20260906033037 | 79 | 119 | 0.0 | 0.0 | 0.00 | 0.36 | 0.36 | 77 | 1012.9 |
| 20260906031536 | 79 | 119 | 0.0 | 0.0 | 0.00 | 0.36 | 0.36 | 78 | 1012.6 |
| 20260906030010 | 79 | 119 | 0.0 | 0.0 | 0.00 | 0.36 | 0.36 | 78 | 1012.8 |
| 20260906024531 | 80 | 119 | 0.0 | 0.0 | 0.00 | 0.36 | 0.36 | 80 | 1012.5 |
| 20260906023025 | 80 | 119 | 0.0 | 0.0 | 0.00 | 0.36 | 0.36 | 80 | 1012.2 |
| 20260906021527 | 81 | 119 | 0.0 | 0.0 | 0.00 | 0.36 | 0.36 | 81 | 1012.0 |
| 20260906020028 | 81 | 119 | 0.0 | 0.0 | 0.00 | 0.36 | 0.36 | 81 | 1012.0 |
| 20260906014515 | 81 | 119 | 0.0 | 0.0 | 0.00 | 0.36 | 0.36 | 81 | 1011.8 |
| 20260906013034 | 82 | 119 | 0.0 | 0.0 | 0.00 | 0.36 | 0.36 | 81 | 1011.6 |
| 20260906011524 | 83 | 119 | 0.0 | 0.0 | 0.00 | 0.36 | 0.36 | 81 | 1011.7 |
| 20260906010028 | 83 | 143 | 0.0 | 0.0 | 0.00 | 0.36 | 0.36 | 81 | 1011.6 |
| 20260906004529 | 83 | 143 | 0.0 | 0.0 | 0.00 | 0.37 | 0.36 | 80 | 1011.7 |
| 20260906003012 | 84 | 143 | 0.0 | 0.0 | 0.00 | 0.37 | 0.36 | 79 | 1011.7 |
| 20260906001522 | 85 | 143 | 0.0 | 0.0 | 0.00 | 0.37 | 0.36 | 78 | 1011.9 |
| 20260906000028 | 85 | 143 | 0.0 | 0.0 | 0.00 | 0.37 | 0.36 | 78 | 1012.1 |
| 20260905234530 | 85 | 143 | 0.0 | 0.0 | 0.00 | 0.37 | 0.36 | 77 | 1012.2 |
| 20260905233030 | 85 | 79 | 0.0 | 0.0 | 0.00 | 0.37 | 0.36 | 76 | 1012.1 |
| 20260905231516 | 86 | 56 | 0.0 | 0.0 | 0.00 | 0.37 | 0.36 | 76 | 1011.9 |
| 20260905230018 | 86 | 90 | 0.0 | 0.0 | 0.00 | 0.37 | 0.36 | 76 | 1011.8 |
| 20260905224525 | 87 | 53 | 0.0 | 0.0 | 0.00 | 0.37 | 0.36 | 75 | 1011.8 |
| 20260905223028 | 88 | 59 | 0.0 | 0.0 | 0.00 | 0.37 | 0.36 | 72 | 1011.6 |
| 20260905221542 | 89 | 115 | 0.0 | 0.0 | 0.00 | 0.37 | 0.36 | 68 | 1011.8 |
| 20260905220012 | 89 | 115 | 0.0 | 0.0 | 0.00 | 0.37 | 0.36 | 66 | 1011.7 |
| 20260905214527 | 90 | 101 | 0.0 | 0.0 | 0.00 | 0.37 | 0.36 | 62 | 1011.8 |
| 20260905213028 | 91 | 58 | 0.0 | 0.0 | 0.00 | 0.37 | 0.36 | 61 | 1012.0 |
| 20260905211537 | 91 | 113 | 0.0 | 0.0 | 0.00 | 0.37 | 0.36 | 61 | 1011.8 |
| 20260905210039 | 91 | 103 | 0.0 | 0.0 | 0.00 | 0.37 | 0.36 | 62 | 1012.0 |
| 20260905204525 | 91 | 100 | 0.0 | 0.0 | 0.00 | 0.37 | 0.36 | 61 | 1012.2 |
| 20260905203009 | 90 | 128 | 0.0 | 0.0 | 0.00 | 0.37 | 0.36 | 66 | 1012.5 |
| 20260905201508 | 89 | 259 | 0.0 | 0.0 | 0.00 | 0.37 | 0.36 | 69 | 1012.5 |
| 20260905200010 | 88 | 110 | 0.0 | 0.0 | 0.00 | 0.37 | 0.36 | 70 | 1012.8 |
| 20260905194510 | 88 | 69 | 0.0 | 0.0 | 0.00 | 0.37 | 0.36 | 74 | 1012.8 |
| 20260905193010 | 87 | 69 | 0.0 | 0.0 | 0.00 | 0.37 | 0.36 | 74 | 1012.7 |
| 20260905191509 | 87 | 103 | 0.0 | 0.0 | 0.00 | 0.37 | 0.36 | 74 | 1013.2 |
| 20260905190007 | 87 | 179 | 0.0 | 0.0 | 0.00 | 0.37 | 0.36 | 76 | 1013.5 |
| 20260905184509 | 85 | 67 | 0.0 | 0.0 | 0.00 | 0.37 | 0.36 | 79 | 1013.6 |
| 20260905183009 | 83 | 67 | 0.0 | 0.0 | 0.00 | 0.37 | 0.36 | 81 | 1013.9 |
| 20260905181513 | 82 | 67 | 0.0 | 0.0 | 0.01 | 0.37 | 0.36 | 81 | 1013.9 |
| 20260905180014 | 81 | 67 | 0.0 | 0.0 | 0.01 | 0.37 | 0.36 | 78 | 1014.2 |
| 20260905174512 | 80 | 67 | 0.0 | 0.0 | 0.01 | 0.37 | 0.36 | 79 | 1014.5 |
| 20260905173012 | 79 | 1 | 0.0 | 0.0 | 0.02 | 0.37 | 0.36 | 77 | 1014.9 |
| 20260905171515 | 79 | 1 | 0.0 | 0.0 | 0.12 | 0.36 | 0.35 | 78 | 1015.0 |
| 20260905170012 | 79 | 1 | 0.0 | 0.0 | 0.15 | 0.36 | 0.35 | 79 | 1015.0 |
| 20260905164514 | 78 | 11 | 0.0 | 0.0 | 0.21 | 0.36 | 0.35 | 78 | 1014.8 |
| 20260905163013 | 78 | 59 | 0.0 | 0.0 | 0.33 | 0.35 | 0.34 | 80 | 1014.8 |
| 20260905161514 | 80 | 70 | 2.0 | 4.0 | 0.22 | 0.24 | 0.23 | 80 | 1014.9 |
| 20260905160013 | 82 | 79 | 0.0 | 0.0 | 0.19 | 0.21 | 0.20 | 79 | 1014.7 |
| 20260905154518 | 85 | 27 | 0.0 | 0.0 | 0.13 | 0.15 | 0.14 | 77 | 1014.7 |
| 20260905153016 | 91 | 218 | 0.0 | 0.0 | 0.00 | 0.02 | 0.01 | 70 | 1014.5 |
| 20260905151514 | 89 | 16 | 0.0 | 0.0 | 0.00 | 0.02 | 0.01 | 69 | 1014.6 |
| 20260905150016 | 90 | 11 | 0.0 | 0.0 | 0.00 | 0.02 | 0.01 | 70 | 1014.4 |
| 20260905144517 | 91 | 333 | 0.0 | 0.0 | 0.00 | 0.02 | 0.01 | 70 | 1014.4 |
| 20260905143025 | 89 | 184 | 0.0 | 0.0 | 0.00 | 0.02 | 0.01 | 73 | 1014.5 |
| 20260905141519 | 89 | 153 | 0.0 | 0.0 | 0.01 | 0.02 | 0.01 | 75 | 1014.4 |
| 20260905140020 | 87 | 86 | 0.0 | 0.0 | 0.01 | 0.02 | 0.01 | 78 | 1014.3 |
| 20260905134519 | 83 | 115 | 0.0 | 0.0 | 0.01 | 0.02 | 0.01 | 76 | 1014.1 |
| 20260905133020 | 80 | 115 | 0.0 | 0.0 | 0.01 | 0.02 | 0.01 | 64 | 1014.4 |
| 20260905131522 | 78 | 115 | 0.0 | 0.0 | 0.00 | 0.01 | 0.00 | 64 | 1014.2 |
| 20260905130023 | 0 | 0.0 | 0.0 | 0.00 | 0.01 | 0.00 | 1014.0 | ||
| 20260905124524 | 0 | 0.0 | 0.0 | 0.00 | 0.01 | 0.00 | 1013.8 |